Regional Weather Roundup
Issued by NWS

Home | Current Version | Previous Version | Text Only | Print | Product List | Glossary On
Versions: 1 2 3 4 5 6 7 8 9 10 11 12 13 14 15 16 17 18 19 20 21 22 23 24 25 26 27 28 29 30 31 32 33 34 35 36 37 38 39 40 41 42 43 44 45 46 47 48 49 50
000
ASUS43 KDTX 301710
RWRMI
MICHIGAN HOURLY REGIONAL WEATHER ROUNDUP
NATIONAL WEATHER SERVICE DETROIT/PONTIAC MI
100 PM EDT THU MAR 30 2017

NOTE: "FAIR" INDICATES FEW OR NO CLOUDS BELOW 12,000 FEET WITH NO
SIGNIFICANT WEATHER AND/OR OBSTRUCTION TO VISIBILITY.

MIZ047>049-052>055-059>063-066>070-074>076-081>083-301800-
SOUTHEAST LOWER MICHIGAN

CITY           SKY/WX    TMP DP  RH WIND       PRES   REMARKS
ADRIAN         LGT RAIN  39  37  92 E18G24    29.87F FOG     WCI  30
ALMA           MIX PCPN  37  37 100 NE14      29.94F WCI  28
ANN ARBOR      RAIN      38  37  97 NE14G22   29.88F FOG     WCI  30
BAD AXE        LGT SNOW  34  33  93 E7G20     30.01F WCI  28
CARO           FLURRIES  34  33  96 E13G21    29.96F WCI  25
DETROIT CITY   LGT RAIN  37  36  96 E18G28    29.96F WCI  27
DETROIT        LGT RAIN  39  37  92 E12G23    29.91F FOG     WCI  32
FLINT          LGT RAIN  37  34  89 E15G23    29.92F WCI  28
GROSSE ILE     LGT RAIN  39  37  91 E10G22    29.91F WCI  32
HILLSDALE      LGT RAIN  37  36  93 E20G26    29.80F WCI  27
HOWELL         LGT RAIN  37  35  92 E12G23    29.88S WCI  29

CITY           SKY/WX    TMP DP  RH WIND       PRES   REMARKS
JACKSON        CLOUDY    40  32  73 E15       29.85F WCI  32
LAMBERTVILLE   CLOUDY    40  37  89 E13G20    29.90S WCI  33
LANSING        LGT RAIN  38  35  89 E16       29.89S WCI  29
LAPEER         LGT RAIN  34  34  98 E9G18     29.94F WCI  27
MASON          CLOUDY    38  37  95 E12G17    29.87F WCI  31
MONROE         LGT RAIN  39  38  96 E17G28    29.88F WCI  30
MT. CLEMENS    LGT RAIN  37  37 100 E17       29.94F FOG     WCI  27
PONTIAC        LGT RAIN  35  33  92 E21G28    29.89F FOG     WCI  24
PORT HOPE        N/A     36  31  82 E16       30.03F WCI  26
PORT HURON     LGT RAIN  36  34  93 E13       29.99F WCI  27
TRI CITIES     LGT RAIN  34  34 100 NE14      29.97F WCI  25
MIDLAND        LGT SNOW  34  33  96 NE12      29.97F WCI  25
TROY           MIX PCPN  37  34  90 E16       29.96F WCI  27
SAGINAW HB     RAIN      36  34  93 E15G21    29.95F WCI  26
$$
MIZ043>046-050>051-056>058-064>065-071>073-077>080-301800-
SOUTHWEST LOWER MICHIGAN

CITY           SKY/WX    TMP DP  RH WIND       PRES   REMARKS
BATTLE CREEK   LGT RAIN  41  39  93 E9        29.81F
BIG RAPIDS     MIX PCPN  36  34  91 E12G23    29.92F WCI  28
COLDWATER      LGT RAIN  42  39  91 SE14G20   29.83F
FREMONT        LGT RAIN  38  36  93 E14G21    29.87F WCI  29
HOLLAND        CLOUDY    42  38  85 E20G28    29.83S
GRAND RAPIDS   CLOUDY    39  39 100 E21       29.85F WCI  29
IONIA          RAIN      37  36  95 E14G21    29.89S WCI  28
KALAMAZOO      LGT RAIN  42  37  82 E10G22    29.81F
LUDINGTON      CLOUDY    39  37  93 E20G28    29.88F WCI  30
MARSHALL       CLOUDY    40  39  97 E14G20    29.81F WCI  32
MOUNT PLEASANT LGT SNOW  33  32  96 NE10      29.95F WCI  25
MUSKEGON       LGT RAIN  41  38  89 E18G26    29.85S
SOUTH HAVEN    CLOUDY    44  40  86 E15G28    29.79S
$$
MIZ016>042-301800-
NORTHERN LOWER MICHIGAN

CITY           SKY/WX    TMP DP  RH WIND       PRES   REMARKS
ALPENA         CLOUDY    38  27  64 E13G23    30.09F WCI  30
BEAVER ISLAND  LGT SNOW  33  33  99 E12G17    30.06F WCI  25
BELLAIRE       CLOUDY    40  30  66 NE10G18   30.01F WCI  34
CADILLAC       DRIZZLE   37  34  89 E17G24    29.93F WCI  27
CHARLEVOIX     CLOUDY    39  30  68 E15       30.07F WCI  31
FRANKFORT      LGT RAIN  40  33  78 E6G17     29.94F
GAYLORD        CLOUDY    39  26  59 E8        30.01F WCI  33
GRAYLING       CLOUDY    39  28  65 E16       30.00F WCI  30
HARBOR SPRINGS CLOUDY    39  28  66 E15G21    30.05F WCI  30
HOUGHTON LAKE  CLOUDY    39  28  64 E16G24    29.99F WCI  30
MANISTEE       LGT RAIN  40  37  89 E16G22    29.91F WCI  31
OSCODA         CLOUDY    38  29  69 E13G18    30.06F WCI  31
PELLSTON       CLOUDY    39  28  64 E10       30.08F WCI  32
ROGERS CITY    CLOUDY    37  30  74 E15       30.11F WCI  28
TRAVERSE CITY  LGT RAIN  43  29  57 E8        29.97F
$$
MIZ007>008-015-301800-
EASTERN UPPER MICHIGAN

CITY           SKY/WX    TMP DP  RH WIND       PRES   REMARKS
KINROSS        PTSUNNY   36  24  62 E20       30.12F WCI  25
MACKINAC ISLAN CLOUDY    34  30  86 E14G25    30.10F WCI  24
NEWBERRY       CLOUDY    37  26  65 E15       30.08F WCI  28
S. S. MARIE    CLOUDY    40  24  53 E10G20    30.12F WCI  33
MUNISING         N/A     40  29  64 SE13G18   30.05F WCI  32
$$
MIZ004>006-011>014-085-301800-
CENTRAL UPPER MICHIGAN

CITY           SKY/WX    TMP DP  RH WIND       PRES   REMARKS
MANISTIQUE     LGT SNOW  33  32  97 E12G17    30.07F WCI  24
ESCANABA       FLURRIES  34  33  96 E10       30.04F WCI  26
MENOMINEE      LGT SNOW  33  32  96 E16       29.99F FOG     WCI  23
SAWYER-GWINN   CLOUDY    37  28  70 E10       30.03F WCI  30
$$
MIZ001>003-009>011-084-301800-
WESTERN UPPER MICHIGAN

CITY           SKY/WX    TMP DP  RH WIND       PRES   REMARKS
IRON MOUNTAIN  LGT SNOW  36  29  75 E8        29.98F WCI  30
HOUGHTON       CLOUDY    36  26  67 E16G25    30.02F WCI  26
COPPER HARBOR    N/A     38  25  59 S8G20     30.06F WCI  32
IRONWOOD       CLOUDY    45  29  53 E8        29.96F
$$

ABBREVIATIONS USED IN REMARKS
   TC - TEMPERATURE IN CELSIUS
  WCI - WIND CHILL INDEX
   HX - HEAT INDEX
  VSB - VISIBILITY





USA.gov is the U.S. government's official web portal to all federal, state and local government web resources and services.